Wind_Speed
4 4 7 9 7 8 9 8 5 7 4 3 9 12 7 19 15 14 22 23 20 11 9 13 20 16 16 18 18 20 22 22 22 21 21 19 19 19 17 16 15 16 16 16
6 7 8 9 9 9 7 12 11 2 7 5 6 9 7 6 10 20 24 25 27 11 13 15 14 21 20 20 21 21 22 23 24 22 20 18 19 19 19 19 17 17 16 16
5 6 9 7 6 13 8 7 7 9 10 8 6 7 9 8 10 17 32 32 29 25 28 20 14 6 19 21 23 24 23 25 25 23 22 22 22 21 21 20 18 18 18 18
2 7 9 10 9 9 3 7 8 9 9 4 2 4 6 8 6 7 20 24 26 30 32 32 22 16 14 18 22 24 26 26 25 26 27 27 25 23 21 19 19 19 18 18
3 5 6 9 6 6 6 8 8 6 7 7 2 2 6 8 1 6 10 24 23 26 33 30 24 25 21 20 21 26 29 29 26 29 30 28 25 22 21 22 21 20 19 18
6 3 2 4 11 8 10 8 8 5 2 2 4 4 6 3 4 5 11 8 27 26 27 26 19 19 26 24 18 25 25 30 31 31 32 32 29 28 26 25 22 21 20 19
7 2 3 2 8 1 11 8 4 4 3 2 2 2 8 6 7 5 6 8 5 19 22 26 20 22 26 25 19 17 27 31 33 35 35 35 32 31 28 25 24 25 24 22
4 6 4 5 3 4 6 4 3 3 3 5 3 2 4 6 9 6 5 5 5 6 20 23 31 24 20 31 29 25 22 31 33 35 38 36 34 35 31 27 25 24 23 21
6 5 2 2 2 4 7 5 3 4 6 2 3 4 6 9 7 9 7 3 3 6 9 13 24 27 30 23 29 27 26 29 31 34 34 38 38 37 35 30 27 26 24 24
1 5 2 1 2 2 2 4 3 3 5 4 6 6 2 4 4 5 5 6 1 4 7 10 16 21 28 31 30 31 32 30 30 33 34 36 39 38 35 32 32 30 29 26
2 3 5 2 4 1 2 1 3 1 2 2 4 5 2 4 4 4 1 1 3 3 6 9 8 11 22 31 35 28 33 37 33 36 35 35 40 39 37 35 35 32 32 30
2 3 4 9 3 4 1 3 3 1 5 3 2 7 2 3 4 6 10 13 13 9 10 13 15 15 14 17 25 34 39 36 40 45 41 40 40 44 47 43 37 36 32 27
1 3 5 3 2 3 3 4 5 3 2 5 2 5 2 2 5 8 10 16 18 8 8 13 16 19 18 17 18 27 25 33 35 39 44 44 44 47 45 42 38 37 32 29
2 4 6 6 9 6 9 8 7 5 3 6 12 17 17 12 9 14 17 22 15 13 13 14 16 16 19 19 16 18 28 27 29 36 42 45 45 47 47 43 43 37 29 26
3 5 6 12 10 10 15 18 16 9 16 8 26 15 19 15 11 9 15 17 16 15 15 13 16 17 16 17 14 14 20 24 27 33 37 40 41 44 45 43 39 33 31 29
6 4 4 10 11 13 19 17 13 14 17 15 19 22 16 27 5 11 13 13 11 11 11 12 12 14 15 17 14 16 20 25 27 28 34 40 41 40 39 38 35 34 29 30
5 4 3 10 6 13 15 10 4 3 7 6 7 14 6 4 5 6 8 10 10 9 9 11 10 12 14 17 16 19 20 24 27 30 32 35 35 36 37 36 36 34 31 30
10 9 4 8 6 5 8 8 5 7 10 8 9 12 9 12 7 11 10 10 7 8 9 11 13 9 14 17 18 17 18 21 21 25 27 30 34 35 35 34 33 31 33 32
7 5 4 3 5 8 13 9 4 2 5 12 15 7 9 5 1 14 14 9 7 8 11 13 13 10 12 17 19 16 17 18 19 24 28 31 34 34 33 31 31 32 29 30
1 3 4 2 5 4 4 3 2 2 5 8 17 9 10 2 1 4 2 4 12 18 18 19 16 12 13 18 19 18 20 22 25 27 30 31 31 31 33 33 32 34 32 28
3 2 6 9 6 6 7 4 2 2 5 22 19 18 16 5 8 20 14 19 25 25 25 25 19 15 14 19 20 23 25 28 27 29 31 31 31 33 35 37 36 34 30 25
4 4 4 4 4 7 14 9 4 16 30 28 29 22 21 21 23 23 24 28 29 24 28 25 22 21 18 21 21 25 28 28 29 30 31 33 35 36 36 35 34 30 26 22
7 4 6 4 6 21 26 22 27 33 28 33 37 37 33 31 30 29 29 29 28 29 28 27 26 24 21 21 23 24 29 31 32 35 36 37 38 38 38 37 34 30 24 19
6 17 7 11 5 21 28 33 35 35 30 28 30 31 33 32 34 35 31 28 27 30 30 31 31 27 25 23 21 23 30 35 35 38 39 41 39 39 37 34 33 27 22 19
7 9 10 8 13 32 20 41 39 44 44 46 45 43 37 31 33 35 37 37 36 36 36 28 31 31 27 26 24 18 32 36 36 40 41 40 41 40 37 31 25 24 19 17
11 5 5 4 23 17 29 37 38 35 42 46 40 43 45 40 38 38 36 35 33 33 33 32 30 31 29 28 29 23 27 37 38 39 43 44 42 38 34 28 24 22 17 16
Wind_Direction
302 17 8 352 324 310 305 298 43 14 12 279 231 260 266 192 185 175 149 152 154 144 180 187 185 182 193 197 215 209 205 201 204 203 201 196 190 195 195 197 196 196 194 196
11 29 350 312 303 323 315 12 7 28 347 308 280 237 249 249 172 185 191 178 177 202 231 179 178 184 194 203 218 222 214 212 214 213 211 208 204 204 202 201 200 200 198 198
13 356 327 312 10 347 59 25 348 315 306 261 286 279 243 235 195 184 189 196 204 198 199 199 175 178 195 218 214 228 223 219 220 218 213 207 209 210 209 207 206 204 201 200
294 359 347 328 16 356 353 5 329 326 334 357 304 294 168 206 190 179 162 179 191 187 198 208 214 213 218 215 225 225 233 231 225 222 221 222 222 217 219 214 211 209 208 205
343 351 343 330 359 334 293 332 286 293 304 320 300 40 307 95 163 195 209 183 199 207 213 215 218 224 235 256 249 233 229 236 233 227 226 226 224 223 221 215 212 213 211 210
249 126 266 314 304 273 283 292 275 223 264 25 15 82 298 62 44 8 16 201 195 203 212 212 214 223 222 223 228 234 241 240 236 234 233 231 226 222 218 217 213 215 215 213
317 138 148 287 319 296 351 343 356 355 2 219 220 25 249 333 46 21 357 18 211 217 223 218 222 226 218 213 228 236 239 241 241 237 235 232 228 228 227 224 217 215 213 212
357 331 21 353 52 298 298 348 88 314 354 286 195 244 250 122 70 40 7 331 306 229 227 235 225 236 229 235 229 234 240 244 243 243 238 233 228 228 227 226 223 220 219 217
356 302 161 73 356 6 323 40 337 294 273 293 236 256 46 105 85 79 66 40 316 288 238 228 240 238 227 227 238 240 233 235 248 245 243 233 228 228 230 225 221 220 218 214
350 299 14 154 241 226 231 320 7 319 327 324 309 307 275 95 150 121 87 75 16 329 289 259 242 236 236 245 243 244 236 237 239 251 246 236 228 229 230 227 224 218 217 214
289 194 276 260 198 25 250 213 229 202 241 281 303 273 302 298 243 179 184 202 315 260 280 288 285 264 247 240 239 244 239 238 232 238 244 240 227 229 229 226 223 222 222 216
51 297 279 262 54 80 320 303 346 200 303 307 291 280 200 108 63 180 239 261 263 245 255 264 275 273 268 259 244 236 240 239 237 244 246 237 233 226 226 225 220 219 212 204
127 266 306 289 42 19 219 215 201 248 327 243 231 262 160 215 309 293 287 296 279 274 282 280 272 283 276 268 249 230 233 240 241 241 240 235 234 230 226 221 216 211 210 204
350 260 230 237 261 311 293 284 281 261 217 249 239 272 285 295 308 323 325 323 312 314 312 305 268 269 270 275 263 241 229 237 234 231 231 232 229 225 222 216 212 207 206 200
211 255 257 280 297 300 287 280 273 230 251 233 268 263 272 282 291 308 323 315 317 313 305 300 280 274 263 266 262 246 232 230 232 231 230 229 225 225 218 213 203 200 192 203
195 249 304 289 288 276 281 279 253 255 262 255 255 269 276 277 258 307 314 322 325 322 319 309 298 274 251 258 244 235 235 234 231 227 222 216 212 209 206 198 194 192 187 193
220 201 237 276 288 337 299 270 268 244 228 217 229 252 255 333 313 290 306 308 312 321 326 336 312 286 268 263 256 241 235 232 229 227 222 220 216 201 194 192 189 189 185 188
256 274 276 281 299 231 238 288 260 261 268 287 285 275 263 248 263 276 275 271 299 313 332 337 332 302 265 268 264 253 238 234 229 223 216 212 198 193 189 187 183 179 178 181
213 228 265 245 214 280 279 297 49 22 294 294 275 297 328 98 324 287 285 252 270 304 322 327 329 310 258 258 262 249 229 225 213 204 203 199 197 194 188 185 180 185 182 178
65 275 184 260 246 252 34 103 71 296 312 352 11 357 343 95 21 265 356 291 324 316 311 314 307 307 260 244 251 241 218 214 208 205 201 200 197 193 189 187 184 179 180 176
144 172 212 236 263 278 328 101 107 155 301 333 342 336 343 333 300 324 307 316 326 319 307 303 291 291 268 247 242 234 221 219 215 208 203 198 193 191 189 184 180 175 174 172
209 204 198 206 235 288 43 2 357 345 343 348 345 331 309 305 311 314 313 315 318 317 309 299 292 289 267 250 243 235 225 224 218 210 205 199 195 193 189 182 175 174 177 174
299 234 278 274 280 327 1 2 3 360 351 344 344 341 342 337 326 314 308 309 307 310 305 303 303 293 267 248 244 234 224 222 216 206 199 194 193 189 179 178 177 176 172 182
310 334 301 325 3 349 332 345 352 351 342 335 340 331 326 318 317 314 311 301 298 303 302 296 296 291 268 249 236 238 228 223 217 204 199 196 187 175 178 182 187 186 198 181
8 308 344 291 356 344 338 333 333 332 330 321 320 319 312 311 306 300 295 290 291 289 287 285 288 286 269 251 229 242 236 231 220 207 197 187 181 180 178 185 192 208 177 192
357 353 345 306 328 324 304 316 320 319 318 315 317 313 310 311 304 299 294 292 289 286 282 288 285 284 270 251 232 241 245 233 223 203 193 189 182 178 181 177 184 170 185 199
Height
1491 1496 1499 1492 1487 1483 1478 1473 1473 1465 1464 1466 1467 1464 1459 1459 1463 1467 1470 1470 1478 1483 1485 1492 1494 1500 1504 1507 1508 1511 1515 1518 1520 1522 1525 1528 1531 1533 1535 1537 1539 1542 1544 1546
1493 1499 1495 1490 1483 1481 1476 1476 1477 1467 1465 1465 1463 1462 1458 1456 1454 1457 1469 1472 1472 1477 1491 1491 1494 1497 1503 1506 1507 1509 1512 1515 1518 1521 1523 1526 1529 1531 1533 1535 1538 1540 1543 1545
1499 1498 1493 1488 1485 1485 1482 1486 1484 1481 1468 1462 1464 1466 1459 1454 1455 1459 1464 1467 1472 1470 1481 1491 1490 1492 1499 1502 1505 1506 1509 1512 1515 1519 1521 1523 1525 1528 1530 1533 1535 1538 1540 1542
1497 1496 1495 1490 1489 1491 1484 1483 1482 1478 1479 1480 1461 1484 1455 1453 1454 1457 1461 1465 1468 1472 1475 1482 1481 1485 1492 1499 1504 1505 1506 1510 1513 1515 1517 1519 1520 1523 1526 1530 1532 1535 1537 1540
1501 1499 1499 1495 1493 1491 1489 1483 1482 1480 1482 1479 1465 1482 1460 1450 1452 1454 1454 1457 1462 1467 1470 1472 1475 1478 1487 1492 1497 1499 1503 1506 1509 1512 1514 1516 1519 1521 1524 1525 1528 1531 1534 1537
1498 1498 1499 1497 1492 1489 1485 1481 1474 1475 1481 1498 1475 1484 1477 1462 1459 1455 1454 1453 1456 1462 1468 1472 1473 1476 1481 1483 1488 1494 1497 1499 1503 1506 1509 1512 1514 1517 1518 1521 1524 1527 1531 1533
1499 1496 1496 1497 1494 1487 1489 1489 1500 1504 1501 1497 1480 1489 1476 1459 1458 1459 1458 1458 1460 1461 1464 1468 1470 1474 1476 1477 1478 1484 1488 1494 1496 1500 1503 1507 1510 1512 1514 1517 1519 1522 1525 1528
1516 1519 1498 1498 1499 1501 1498 1495 1514 1508 1506 1499 1476 1484 1471 1458 1459 1460 1461 1462 1461 1463 1463 1462 1467 1470 1470 1474 1476 1478 1481 1488 1489 1492 1496 1501 1505 1507 1510 1512 1515 1519 1522 1524
1517 1511 1499 1498 1498 1501 1497 1504 1496 1501 1491 1494 1480 1464 1458 1459 1461 1461 1462 1463 1463 1463 1463 1464 1465 1466 1468 1469 1473 1475 1475 1481 1486 1487 1489 1496 1499 1501 1504 1506 1510 1514 1517 1519
1512 1521 1499 1497 1499 1499 1499 1499 1507 1505 1505 1501 1488 1478 1486 1466 1464 1463 1464 1464 1463 1462 1461 1462 1463 1463 1465 1466 1468 1470 1472 1475 1479 1481 1484 1488 1493 1495 1500 1504 1506 1508 1510 1513
1511 1514 1507 1497 1499 1496 1501 1499 1499 1500 1500 1504 1503 1489 1459 1462 1460 1460 1461 1462 1461 1460 1460 1459 1459 1459 1460 1460 1463 1462 1464 1470 1472 1473 1475 1481 1484 1487 1493 1498 1502 1504 1504 1507
1512 1513 1517 1501 1495 1494 1496 1496 1498 1508 1504 1501 1503 1483 1454 1457 1457 1458 1456 1456 1456 1456 1455 1455 1455 1455 1454 1454 1454 1457 1458 1459 1463 1466 1468 1473 1478 1480 1481 1487 1492 1497 1502 1504
1512 1514 1521 1499 1500 1498 1498 1493 1494 1498 1503 1507 1507 1489 1455 1455 1456 1456 1457 1456 1454 1452 1450 1450 1448 1448 1448 1448 1448 1450 1452 1453 1454 1456 1460 1462 1466 1472 1475 1481 1485 1492 1495 1495
1514 1512 1511 1518 1505 1499 1501 1495 1496 1498 1509 1494 1485 1470 1464 1459 1457 1454 1452 1451 1450 1449 1448 1448 1446 1445 1444 1444 1444 1445 1445 1447 1449 1451 1452 1455 1456 1465 1467 1468 1477 1477 1490 1490
1513 1513 1510 1504 1502 1498 1494 1490 1487 1496 1487 1495 1468 1474 1461 1458 1456 1452 1450 1449 1446 1444 1444 1445 1445 1442 1442 1441 1441 1441 1442 1441 1444 1448 1450 1452 1454 1458 1462 1465 1471 1477 1476 1488
1507 1511 1505 1509 1498 1494 1487 1478 1477 1476 1473 1474 1467 1461 1453 1450 1450 1450 1449 1447 1446 1444 1442 1441 1440 1440 1438 1439 1439 1438 1439 1441 1441 1443 1447 1449 1451 1454 1456 1460 1465 1477 1473 1487
1503 1506 1504 1501 1494 1494 1489 1466 1464 1463 1461 1459 1466 1452 1449 1448 1448 1447 1446 1446 1446 1444 1441 1439 1437 1436 1436 1435 1435 1435 1435 1437 1440 1439 1441 1443 1447 1451 1454 1459 1464 1469 1472 1484
1495 1498 1501 1500 1497 1506 1469 1457 1457 1458 1455 1453 1452 1447 1444 1443 1444 1445 1444 1443 1443 1443 1441 1438 1435 1434 1433 1431 1431 1431 1432 1432 1431 1436 1438 1439 1443 1449 1453 1457 1460 1465 1473 1481
1489 1496 1502 1500 1496 1475 1466 1456 1456 1460 1460 1451 1444 1443 1441 1440 1440 1440 1441 1441 1440 1439 1438 1436 1434 1432 1430 1428 1427 1428 1429 1430 1431 1432 1435 1439 1442 1446 1451 1457 1459 1465 1471 1480
1489 1491 1497 1493 1493 1479 1457 1456 1456 1456 1464 1454 1450 1447 1444 1442 1446 1443 1441 1441 1439 1437 1435 1433 1431 1429 1429 1426 1424 1426 1426 1427 1429 1432 1433 1437 1441 1445 1449 1454 1459 1467 1475 1480
1492 1494 1498 1494 1490 1472 1458 1456 1456 1465 1469 1454 1452 1451 1448 1447 1445 1442 1439 1437 1436 1435 1433 1429 1427 1424 1423 1423 1423 1422 1424 1424 1426 1429 1432 1435 1439 1443 1448 1454 1460 1466 1471 1474
1481 1487 1490 1486 1486 1487 1462 1462 1467 1465 1457 1457 1454 1450 1446 1443 1441 1438 1436 1433 1432 1429 1428 1426 1422 1419 1418 1418 1415 1418 1419 1421 1422 1425 1428 1431 1435 1439 1445 1452 1457 1464 1468 1471
1483 1479 1476 1475 1469 1461 1463 1471 1468 1466 1466 1459 1453 1449 1447 1442 1439 1436 1432 1430 1427 1425 1422 1421 1418 1415 1413 1412 1412 1414 1415 1415 1417 1418 1422 1427 1431 1437 1443 1448 1454 1459 1462 1466
1479 1477 1474 1473 1466 1470 1469 1464 1462 1464 1464 1461 1453 1451 1449 1444 1439 1433 1427 1424 1421 1418 1416 1415 1412 1408 1407 1405 1404 1409 1411 1412 1412 1413 1416 1420 1426 1433 1439 1444 1448 1452 1458 1464
1499 1490 1492 1481 1475 1469 1468 1468 1466 1460 1455 1449 1444 1444 1443 1437 1429 1428 1421 1416 1413 1410 1407 1404 1403 1401 1399 1399 1399 1398 1404 1406 1407 1408 1411 1417 1423 1427 1433 1440 1445 1450 1457 1463
1510 1508 1503 1497 1495 1493 1484 1478 1471 1466 1457 1451 1448 1439 1432 1429 1425 1420 1411 1407 1403 1400 1397 1395 1393 1392 1392 1392 1394 1390 1392 1397 1399 1403 1406 1410 1417 1424 1431 1436 1441 1448 1455 1459